Time,TemperatureF,DewpointF,PressureIn,WindDirection,WindDirectionDegrees,WindSpeedMPH,WindSpeedGustMPH,Humidity,HourlyPrecipIn,Conditions,Clouds,dailyrainin,SoftwareType,DateUTC
2013-02-10 00:01:00,38.0,35.0,29.34,NE,38,7.0,13.0,90,0.01,,,0.04,,2013-02-10 06:01:00,
2013-02-10 00:11:00,38.0,35.0,29.34,NE,38,7.0,13.0,90,0.01,,,0.04,,2013-02-10 06:11:00,
2013-02-10 00:21:00,38.0,35.0,29.31,ENE,57,8.0,16.0,89,0.01,,,0.05,,2013-02-10 06:21:00,
2013-02-10 00:32:00,37.0,34.0,29.33,ENE,63,6.0,21.0,90,0.01,,,0.05,,2013-02-10 06:32:00,
2013-02-10 00:42:00,37.0,34.0,29.33,ENE,63,6.0,21.0,90,0.01,,,0.05,,2013-02-10 06:42:00,
2013-02-10 00:51:00,37.0,34.0,29.34,NE,53,6.0,11.0,90,0.01,,,0.05,,2013-02-10 06:51:00,
2013-02-10 01:01:00,37.0,34.0,29.33,NE,39,7.0,14.0,90,0.00,,,0.05,,2013-02-10 07:01:00,
2013-02-10 01:11:00,37.0,34.0,29.33,NE,39,7.0,14.0,90,0.00,,,0.05,,2013-02-10 07:11:00,
2013-02-10 01:21:00,37.0,34.0,29.32,East,87,5.0,12.0,90,0.02,,,0.07,,2013-02-10 07:21:00,
2013-02-10 01:31:00,37.0,34.0,29.31,NNE,28,4.0,12.0,90,0.06,,,0.11,,2013-02-10 07:31:00,
2013-02-10 01:41:00,37.0,34.0,29.31,NNE,28,4.0,12.0,90,0.06,,,0.11,,2013-02-10 07:41:00,
2013-02-10 01:51:00,37.0,35.0,29.30,NE,42,3.0,12.0,91,0.07,,,0.12,,2013-02-10 07:51:00,
2013-02-10 02:01:00,36.0,33.0,29.28,NNE,28,5.0,9.0,90,0.09,,,0.14,,2013-02-10 08:01:00,
2013-02-10 02:11:00,36.0,33.0,29.28,NNE,28,5.0,9.0,90,0.09,,,0.14,,2013-02-10 08:11:00,
2013-02-10 02:21:00,36.0,34.0,29.28,NE,39,3.0,7.0,91,0.09,,,0.16,,2013-02-10 08:21:00,
2013-02-10 02:32:00,36.0,34.0,29.27,East,80,4.0,9.0,91,0.06,,,0.17,,2013-02-10 08:32:00,
2013-02-10 02:43:00,36.0,34.0,29.27,East,80,4.0,9.0,91,0.06,,,0.17,,2013-02-10 08:43:00,
2013-02-10 02:52:00,36.0,34.0,29.27,East,80,4.0,9.0,91,0.06,,,0.17,,2013-02-10 08:52:00,
2013-02-10 03:02:00,36.0,34.0,29.25,ENE,63,2.0,9.0,92,0.03,,,0.17,,2013-02-10 09:02:00,
2013-02-10 03:11:00,36.0,34.0,29.25,ENE,63,2.0,9.0,92,0.03,,,0.17,,2013-02-10 09:11:00,
2013-02-10 03:21:00,36.0,34.0,29.24,NE,46,2.0,7.0,92,0.03,,,0.19,,2013-02-10 09:21:00,
2013-02-10 03:32:00,36.0,34.0,29.23,ENE,59,0.0,8.0,92,0.02,,,0.19,,2013-02-10 09:32:00,
2013-02-10 03:41:00,36.0,34.0,29.23,ENE,59,0.0,8.0,92,0.02,,,0.19,,2013-02-10 09:41:00,
2013-02-10 03:51:00,36.0,34.0,29.23,ENE,67,2.0,9.0,91,0.04,,,0.21,,2013-02-10 09:51:00,
2013-02-10 04:01:00,35.0,33.0,29.23,NE,47,0.0,1.0,91,0.06,,,0.23,,2013-02-10 10:01:00,
2013-02-10 04:11:00,35.0,33.0,29.23,NE,47,0.0,1.0,91,0.06,,,0.23,,2013-02-10 10:11:00,
2013-02-10 04:21:00,34.0,32.0,29.22,NE,47,0.0,1.0,91,0.06,,,0.25,,2013-02-10 10:21:00,
2013-02-10 04:31:00,32.0,29.0,29.22,SW,228,2.0,4.0,90,0.06,,,0.25,,2013-02-10 10:31:00,
2013-02-10 04:42:00,32.0,29.0,29.22,SW,228,2.0,4.0,90,0.06,,,0.25,,2013-02-10 10:42:00,
2013-02-10 04:51:00,29.0,26.0,29.21,NNW,344,3.0,10.0,89,0.04,,,0.25,,2013-02-10 10:51:00,
2013-02-10 05:01:00,28.0,25.0,29.21,WNW,290,3.0,8.0,89,0.02,,,0.25,,2013-02-10 11:01:00,
2013-02-10 05:11:00,28.0,25.0,29.21,WNW,290,3.0,8.0,89,0.02,,,0.25,,2013-02-10 11:11:00,
2013-02-10 05:22:00,28.0,25.0,29.21,WSW,240,3.0,10.0,89,0.00,,,0.25,,2013-02-10 11:22:00,
2013-02-10 05:32:00,27.0,24.0,29.21,SW,219,3.0,10.0,88,0.00,,,0.25,,2013-02-10 11:32:00,
2013-02-10 05:42:00,27.0,24.0,29.21,SW,219,3.0,10.0,88,0.00,,,0.25,,2013-02-10 11:42:00,
2013-02-10 05:52:00,27.0,24.0,29.22,ESE,109,3.0,12.0,88,0.00,,,0.25,,2013-02-10 11:52:00,
2013-02-10 06:02:00,27.0,24.0,29.22,SSW,207,4.0,11.0,87,0.00,,,0.25,,2013-02-10 12:02:00,
2013-02-10 06:12:00,27.0,24.0,29.22,SSW,207,4.0,11.0,87,0.00,,,0.25,,2013-02-10 12:12:00,
2013-02-10 06:21:00,27.0,23.0,29.23,WNW,299,5.0,11.0,86,0.00,,,0.25,,2013-02-10 12:21:00,
2013-02-10 06:32:00,26.0,22.0,29.24,WSW,250,6.0,14.0,85,0.00,,,0.25,,2013-02-10 12:32:00,
2013-02-10 06:42:00,26.0,22.0,29.24,WSW,250,6.0,14.0,85,0.00,,,0.25,,2013-02-10 12:42:00,
2013-02-10 06:52:00,26.0,22.0,29.24,SE,141,6.0,14.0,85,0.00,,,0.25,,2013-02-10 12:52:00,
2013-02-10 07:02:00,25.0,21.0,29.26,NW,309,6.0,14.0,85,0.00,,,0.25,,2013-02-10 13:02:00,
2013-02-10 07:11:00,25.0,21.0,29.26,NW,309,6.0,14.0,85,0.00,,,0.25,,2013-02-10 13:11:00,
2013-02-10 07:21:00,25.0,21.0,29.27,NNW,336,6.0,14.0,85,0.00,,,0.25,,2013-02-10 13:21:00,
2013-02-10 07:31:00,25.0,21.0,29.28,WSW,249,6.0,14.0,85,0.00,,,0.25,,2013-02-10 13:31:00,
2013-02-10 07:41:00,25.0,21.0,29.28,WSW,249,6.0,14.0,85,0.00,,,0.25,,2013-02-10 13:41:00,
2013-02-10 07:51:00,25.0,21.0,29.29,WSW,237,6.0,15.0,85,0.00,,,0.25,,2013-02-10 13:51:00,
2013-02-10 08:02:00,25.0,21.0,29.30,WSW,252,6.0,14.0,85,0.00,,,0.25,,2013-02-10 14:02:00,
2013-02-10 08:11:00,25.0,21.0,29.30,WSW,252,6.0,14.0,85,0.00,,,0.25,,2013-02-10 14:11:00,
2013-02-10 08:21:00,25.0,21.0,29.32,SW,232,5.0,14.0,85,0.00,,,0.25,,2013-02-10 14:21:00,
2013-02-10 08:32:00,25.0,21.0,29.34,WSW,244,6.0,19.0,85,0.00,,,0.25,,2013-02-10 14:32:00,
2013-02-10 08:41:00,25.0,21.0,29.34,WSW,244,6.0,19.0,85,0.00,,,0.25,,2013-02-10 14:41:00,
2013-02-10 08:52:00,25.0,21.0,29.35,West,268,8.0,14.0,85,0.00,,,0.25,,2013-02-10 14:52:00,
2013-02-10 09:02:00,26.0,22.0,29.36,West,280,8.0,19.0,85,0.00,,,0.25,,2013-02-10 15:02:00,
2013-02-10 09:11:00,26.0,22.0,29.36,West,280,8.0,19.0,85,0.00,,,0.25,,2013-02-10 15:11:00,
2013-02-10 09:21:00,26.0,22.0,29.37,WSW,238,7.0,16.0,85,0.00,,,0.25,,2013-02-10 15:21:00,
2013-02-10 09:32:00,26.0,22.0,29.38,WSW,252,7.0,16.0,84,0.00,,,0.25,,2013-02-10 15:32:00,
2013-02-10 09:42:00,26.0,22.0,29.38,WSW,252,7.0,16.0,84,0.00,,,0.25,,2013-02-10 15:42:00,
2013-02-10 09:52:00,26.0,22.0,29.39,SW,215,9.0,20.0,84,0.00,,,0.25,,2013-02-10 15:52:00,
2013-02-10 10:02:00,26.0,22.0,29.41,SW,235,7.0,18.0,85,0.00,,,0.25,,2013-02-10 16:02:00,
2013-02-10 10:11:00,27.0,23.0,29.42,SW,235,8.0,20.0,84,0.00,,,0.25,,2013-02-10 16:11:00,
2013-02-10 10:22:00,27.0,23.0,29.42,SW,235,8.0,20.0,84,0.00,,,0.25,,2013-02-10 16:22:00,
2013-02-10 10:32:00,27.0,23.0,29.43,WSW,240,8.0,21.0,84,0.00,,,0.25,,2013-02-10 16:32:00,
2013-02-10 10:42:00,27.0,23.0,29.44,WSW,250,10.0,23.0,83,0.00,,,0.25,,2013-02-10 16:42:00,
2013-02-10 10:52:00,27.0,23.0,29.44,WSW,250,10.0,23.0,83,0.00,,,0.25,,2013-02-10 16:52:00,
2013-02-10 11:01:00,28.0,23.0,29.45,WSW,250,9.0,19.0,82,0.00,,,0.25,,2013-02-10 17:01:00,
2013-02-10 11:11:00,28.0,23.0,29.45,WSW,250,9.0,19.0,82,0.00,,,0.25,,2013-02-10 17:11:00,
2013-02-10 11:22:00,28.0,24.0,29.46,WSW,238,10.0,27.0,83,0.00,,,0.25,,2013-02-10 17:22:00,
2013-02-10 11:32:00,28.0,23.0,29.47,West,267,8.0,23.0,81,0.00,,,0.25,,2013-02-10 17:32:00,
2013-02-10 11:42:00,29.0,24.0,29.47,SW,232,6.0,18.0,81,0.00,,,0.25,,2013-02-10 17:42:00,
2013-02-10 11:52:00,29.0,24.0,29.47,SW,232,6.0,18.0,81,0.00,,,0.25,,2013-02-10 17:52:00,
2013-02-10 12:02:00,29.0,23.0,29.48,WSW,248,8.0,14.0,79,0.00,,,0.25,,2013-02-10 18:02:00,
2013-02-10 12:12:00,29.0,23.0,29.50,SW,235,10.0,24.0,77,0.00,,,0.25,,2013-02-10 18:12:00,
2013-02-10 12:22:00,29.0,23.0,29.50,SW,235,10.0,24.0,77,0.00,,,0.25,,2013-02-10 18:22:00,
2013-02-10 12:32:00,30.0,24.0,29.51,South,188,9.0,18.0,78,0.00,,,0.25,,2013-02-10 18:32:00,
2013-02-10 12:42:00,30.0,24.0,29.51,South,188,9.0,18.0,78,0.00,,,0.25,,2013-02-10 18:42:00,
2013-02-10 12:52:00,29.0,23.0,29.51,WSW,247,9.0,20.0,78,0.00,,,0.25,,2013-02-10 18:52:00,
2013-02-10 13:02:00,30.0,24.0,29.52,West,263,7.0,18.0,78,0.00,,,0.25,,2013-02-10 19:02:00,
2013-02-10 13:12:00,30.0,24.0,29.52,WSW,254,7.0,20.0,78,0.00,,,0.25,,2013-02-10 19:12:00,
2013-02-10 13:22:00,30.0,24.0,29.52,WSW,254,7.0,20.0,78,0.00,,,0.25,,2013-02-10 19:22:00,
2013-02-10 13:32:00,32.0,25.0,29.52,WSW,257,6.0,25.0,76,0.00,,,0.25,,2013-02-10 19:32:00,
2013-02-10 13:42:00,31.0,24.0,29.54,SW,236,7.0,19.0,75,0.00,,,0.25,,2013-02-10 19:42:00,
2013-02-10 13:52:00,31.0,24.0,29.54,SW,236,7.0,19.0,75,0.00,,,0.25,,2013-02-10 19:52:00,
2013-02-10 14:02:00,31.0,24.0,29.55,WNW,289,6.0,18.0,75,0.00,,,0.25,,2013-02-10 20:02:00,
2013-02-10 14:11:00,31.0,24.0,29.55,WNW,289,6.0,18.0,75,0.00,,,0.25,,2013-02-10 20:11:00,
2013-02-10 14:22:00,31.0,24.0,29.55,WSW,244,8.0,22.0,75,0.00,,,0.25,,2013-02-10 20:22:00,
2013-02-10 14:32:00,32.0,25.0,29.56,WSW,240,8.0,19.0,76,0.00,,,0.25,,2013-02-10 20:32:00,
2013-02-10 14:42:00,33.0,26.0,29.58,SW,219,9.0,22.0,74,0.00,,,0.25,,2013-02-10 20:42:00,
2013-02-10 14:52:00,33.0,26.0,29.58,SW,219,9.0,22.0,74,0.00,,,0.25,,2013-02-10 20:52:00,
2013-02-10 15:02:00,33.0,25.0,29.59,West,259,10.0,19.0,73,0.01,,,0.26,,2013-02-10 21:02:00,
2013-02-10 15:11:00,33.0,25.0,29.59,West,259,10.0,19.0,73,0.01,,,0.26,,2013-02-10 21:11:00,
2013-02-10 15:21:00,33.0,25.0,29.60,West,265,10.0,23.0,73,0.01,,,0.26,,2013-02-10 21:21:00,
2013-02-10 15:32:00,32.0,24.0,29.62,SW,236,8.0,22.0,73,0.01,,,0.25,,2013-02-10 21:32:00,
2013-02-10 15:42:00,32.0,24.0,29.65,West,267,10.0,18.0,72,0.01,,,0.25,,2013-02-10 21:42:00,
2013-02-10 15:52:00,32.0,24.0,29.65,West,267,10.0,18.0,72,0.01,,,0.25,,2013-02-10 21:52:00,
2013-02-10 16:02:00,32.0,24.0,29.66,WSW,246,6.0,19.0,73,0.00,,,0.25,,2013-02-10 22:02:00,
2013-02-10 16:11:00,32.0,24.0,29.67,WSW,247,7.0,17.0,73,0.00,,,0.25,,2013-02-10 22:11:00,
2013-02-10 16:21:00,32.0,24.0,29.67,WSW,247,7.0,17.0,73,0.00,,,0.25,,2013-02-10 22:21:00,
2013-02-10 16:32:00,32.0,24.0,29.69,SW,235,6.0,20.0,72,0.00,,,0.25,,2013-02-10 22:32:00,
2013-02-10 16:42:00,32.0,24.0,29.70,SW,234,7.0,25.0,72,0.00,,,0.25,,2013-02-10 22:42:00,
2013-02-10 16:52:00,32.0,24.0,29.70,SW,234,7.0,25.0,72,0.00,,,0.25,,2013-02-10 22:52:00,
2013-02-10 17:02:00,33.0,24.0,29.72,SSW,213,7.0,18.0,70,0.00,,,0.25,,2013-02-10 23:02:00,
2013-02-10 17:11:00,33.0,24.0,29.72,SSW,213,7.0,18.0,70,0.00,,,0.25,,2013-02-10 23:11:00,
2013-02-10 17:22:00,32.0,22.0,29.73,SW,227,8.0,24.0,67,0.00,,,0.25,,2013-02-10 23:22:00,
2013-02-10 17:32:00,32.0,24.0,29.75,SW,223,9.0,17.0,71,0.00,,,0.25,,2013-02-10 23:32:00,
2013-02-10 17:42:00,31.0,22.0,29.77,NW,304,8.0,20.0,69,0.00,,,0.25,,2013-02-10 23:42:00,
2013-02-10 17:52:00,31.0,22.0,29.77,NW,304,8.0,20.0,69,0.00,,,0.25,,2013-02-10 23:52:00,
2013-02-10 18:02:00,31.0,23.0,29.78,WSW,254,4.0,18.0,71,0.00,,,0.25,,2013-02-11 00:02:00,
2013-02-10 18:11:00,30.0,21.0,29.79,WSW,250,8.0,21.0,70,0.00,,,0.25,,2013-02-11 00:11:00,
2013-02-10 18:22:00,30.0,21.0,29.79,WSW,250,8.0,21.0,70,0.00,,,0.25,,2013-02-11 00:22:00,
2013-02-10 18:32:00,29.0,21.0,29.80,SSW,213,7.0,16.0,71,0.00,,,0.25,,2013-02-11 00:32:00,
2013-02-10 18:42:00,29.0,21.0,29.80,SSW,213,7.0,16.0,71,0.00,,,0.25,,2013-02-11 00:42:00,
2013-02-10 18:51:00,29.0,21.0,29.80,SSW,213,7.0,16.0,71,0.00,,,0.25,,2013-02-11 00:51:00,
2013-02-10 19:01:00,29.0,21.0,29.83,SW,232,8.0,15.0,72,0.00,,,0.25,,2013-02-11 01:01:00,
2013-02-10 19:11:00,29.0,21.0,29.83,SW,232,8.0,15.0,72,0.00,,,0.25,,2013-02-11 01:11:00,
2013-02-10 19:21:00,29.0,21.0,29.84,SSW,204,5.0,13.0,71,0.00,,,0.25,,2013-02-11 01:21:00,
2013-02-10 19:32:00,28.0,20.0,29.84,WSW,246,5.0,15.0,71,0.00,,,0.25,,2013-02-11 01:32:00,
2013-02-10 19:42:00,28.0,20.0,29.84,WSW,246,5.0,15.0,71,0.00,,,0.25,,2013-02-11 01:42:00,
2013-02-10 19:52:00,28.0,20.0,29.85,WSW,246,5.0,13.0,70,0.00,,,0.25,,2013-02-11 01:52:00,
2013-02-10 20:01:00,28.0,20.0,29.87,WSW,245,5.0,15.0,71,0.00,,,0.25,,2013-02-11 02:01:00,
2013-02-10 20:11:00,28.0,20.0,29.87,WSW,245,5.0,15.0,71,0.00,,,0.25,,2013-02-11 02:11:00,
2013-02-10 20:21:00,29.0,20.0,29.88,West,265,5.0,12.0,69,0.00,,,0.25,,2013-02-11 02:21:00,
2013-02-10 20:32:00,29.0,20.0,29.89,SW,236,6.0,14.0,69,0.00,,,0.25,,2013-02-11 02:32:00,
2013-02-10 20:42:00,29.0,20.0,29.90,WSW,246,7.0,14.0,68,0.00,,,0.25,,2013-02-11 02:42:00,
2013-02-10 20:52:00,29.0,20.0,29.90,WSW,246,7.0,14.0,68,0.00,,,0.25,,2013-02-11 02:52:00,
2013-02-10 21:02:00,28.0,20.0,29.91,WSW,249,6.0,13.0,70,0.00,,,0.25,,2013-02-11 03:02:00,
2013-02-10 21:11:00,28.0,20.0,29.91,WSW,249,6.0,13.0,70,0.00,,,0.25,,2013-02-11 03:11:00,
2013-02-10 21:21:00,28.0,20.0,29.91,SW,229,5.0,12.0,71,0.00,,,0.25,,2013-02-11 03:21:00,
2013-02-10 21:32:00,27.0,20.0,29.92,WSW,246,5.0,12.0,75,0.00,,,0.23,,2013-02-11 03:32:00,
2013-02-10 21:42:00,26.0,19.0,29.93,WSW,238,5.0,14.0,75,0.00,,,0.23,,2013-02-11 03:42:00,
2013-02-10 21:52:00,26.0,19.0,29.93,WSW,238,5.0,14.0,75,0.00,,,0.23,,2013-02-11 03:52:00,
2013-02-10 22:01:00,26.0,19.0,29.93,SW,229,6.0,11.0,76,0.00,,,0.23,,2013-02-11 04:01:00,
2013-02-10 22:11:00,26.0,19.0,29.93,SW,229,6.0,11.0,76,0.00,,,0.23,,2013-02-11 04:11:00,
2013-02-10 22:21:00,26.0,19.0,29.94,WSW,237,5.0,11.0,76,0.00,,,0.23,,2013-02-11 04:21:00,
2013-02-10 22:32:00,26.0,19.0,29.94,WSW,244,4.0,10.0,75,0.00,,,0.23,,2013-02-11 04:32:00,
2013-02-10 22:42:00,26.0,19.0,29.94,WSW,244,4.0,10.0,75,0.00,,,0.23,,2013-02-11 04:42:00,
2013-02-10 22:51:00,26.0,19.0,29.95,WSW,253,4.0,10.0,73,0.00,,,0.23,,2013-02-11 04:51:00,
2013-02-10 23:01:00,26.0,18.0,29.96,SW,232,4.0,10.0,72,0.00,,,0.23,,2013-02-11 05:01:00,
2013-02-10 23:12:00,25.0,17.0,29.96,WSW,258,5.0,12.0,72,0.00,,,0.23,,2013-02-11 05:12:00,
2013-02-10 23:22:00,25.0,17.0,29.96,WSW,258,5.0,12.0,72,0.00,,,0.23,,2013-02-11 05:22:00,
2013-02-10 23:32:00,25.0,18.0,29.98,WSW,246,4.0,8.0,73,0.00,,,0.22,,2013-02-11 05:32:00,
2013-02-10 23:42:00,25.0,18.0,29.98,WSW,246,4.0,8.0,73,0.00,,,0.22,,2013-02-11 05:42:00,
2013-02-10 23:52:00,25.0,18.0,29.99,WSW,250,4.0,9.0,75,0.00,,,0.22,,2013-02-11 05:52:00,